Date,TemperatureHighF,TemperatureAvgF,TemperatureLowF,DewpointHighF,DewpointAvgF,DewpointLowF,HumidityHigh,HumidityAvg,HumidityLow,PressureMaxIn,PressureMinIn,WindSpeedMaxMPH,WindSpeedAvgMPH,GustSpeedMaxMPH,PrecipitationSumIn
2013-10-1,76,74,73,-100,-100,-100,0,0,100,0.00,40.00,0,-999,0,0.00
2013-10-2,81,75,72,-100,-100,-100,0,0,100,0.00,40.00,0,-999,0,0.00
2013-10-3,87,79,72,-100,-100,-100,0,0,100,0.00,40.00,0,-999,0,0.00
2013-10-4,89,81,73,-100,-100,-100,0,0,100,0.00,40.00,0,-999,0,0.00
2013-10-5,82,76,71,-100,-100,-100,0,0,100,0.00,40.00,0,-999,0,0.00
2013-10-6,72,61,53,-100,-100,-100,0,0,100,0.00,40.00,0,-999,0,0.00
2013-10-7,69,58,53,-100,-100,-100,0,0,100,0.00,40.00,0,-999,0,0.00
2013-10-8,76,59,46,-100,-100,-100,0,0,100,0.00,40.00,0,-999,0,0.00
2013-10-9,80,58,46,-100,-100,-100,0,0,100,0.00,40.00,0,-999,0,0.00
2013-10-10,83,68,56,-100,-100,-100,0,0,100,0.00,40.00,0,-999,0,0.00
2013-10-11,83,68,58,-100,-100,-100,0,0,100,0.00,40.00,0,-999,0,0.00
2013-10-12,73,66,58,-100,-100,-100,0,0,100,0.00,40.00,0,-999,0,0.00
2013-10-13,76,63,52,-100,-100,-100,0,0,100,0.00,40.00,0,-999,0,0.00
2013-10-14,71,59,51,-100,-100,-100,0,0,100,0.00,40.00,0,-999,0,0.00
2013-10-15,71,67,62,-100,-100,-100,0,0,100,0.00,40.00,0,-999,0,0.00
2013-10-16,66,59,51,-100,-100,-100,0,0,100,0.00,40.00,0,-999,0,0.00
2013-10-17,64,54,48,-100,-100,-100,0,0,100,0.00,40.00,0,-999,0,0.00
2013-10-18,68,56,45,-100,-100,-100,0,0,100,0.00,40.00,0,-999,0,0.00
2013-10-19,58,49,44,-100,-100,-100,0,0,100,0.00,40.00,0,-999,0,0.00
2013-10-20,68,60,43,-100,-100,-100,0,0,100,0.00,40.00,0,-999,0,0.00
2013-10-21,61,54,46,-100,-100,-100,0,0,100,0.00,40.00,0,-999,0,0.00
2013-10-22,59,50,34,-100,-100,-100,0,0,100,0.00,40.00,0,-999,0,0.00
2013-10-23,51,45,41,-100,-100,-100,0,0,100,0.00,40.00,0,-999,0,0.00
2013-10-24,49,43,35,-100,-100,-100,0,0,100,0.00,40.00,0,-999,0,0.00
2013-10-25,54,39,26,-100,-100,-100,0,0,100,0.00,40.00,0,-999,0,0.00
2013-10-26,67,54,36,-100,-100,-100,0,0,100,0.00,40.00,0,-999,0,0.00
2013-10-27,59,41,31,-100,-100,-100,0,0,100,0.00,40.00,0,-999,0,0.00
2013-10-28,70,50,32,-100,-100,-100,0,0,100,0.00,40.00,0,-999,0,0.00
2013-10-29,59,53,43,-100,-100,-100,0,0,100,0.00,40.00,0,-999,0,0.00
2013-10-30,76,68,58,-100,-100,-100,0,0,100,0.00,40.00,0,-999,0,0.00
2013-10-31,68,65,57,-100,-100,-100,0,0,100,0.00,40.00,0,-999,0,0.00